Year,Month,Day,Hour,Minute,Value (Times are PST for temperature in C)
2015,05,17,00,00,12.60
2015,05,17,00,01,12.60
2015,05,17,00,02,12.60
2015,05,17,00,03,12.60
2015,05,17,00,04,12.60
2015,05,17,00,05,12.60
2015,05,17,00,06,12.60
2015,05,17,00,07,12.60
2015,05,17,00,08,12.60
2015,05,17,00,09,12.60
2015,05,17,00,10,12.60
2015,05,17,00,11,12.60
2015,05,17,00,12,12.60
2015,05,17,00,13,12.60
2015,05,17,00,14,12.60
2015,05,17,00,15,12.60
2015,05,17,00,16,12.60
2015,05,17,00,17,12.60
2015,05,17,00,18,12.60
2015,05,17,00,19,12.60
2015,05,17,00,20,12.60
2015,05,17,00,21,12.60
2015,05,17,00,22,12.60
2015,05,17,00,23,12.60
2015,05,17,00,24,12.60
2015,05,17,00,25,12.60
2015,05,17,00,26,12.60
2015,05,17,00,27,12.60
2015,05,17,00,28,12.60
2015,05,17,00,29,12.60
2015,05,17,00,30,12.70
2015,05,17,00,31,12.70
2015,05,17,00,32,12.70
2015,05,17,00,33,12.70
2015,05,17,00,34,12.70
2015,05,17,00,35,12.70
2015,05,17,00,36,12.70
2015,05,17,00,37,12.70
2015,05,17,00,38,12.70
2015,05,17,00,39,12.70
2015,05,17,00,40,12.70
2015,05,17,00,41,12.70
2015,05,17,00,42,12.70
2015,05,17,00,43,12.70
2015,05,17,00,44,12.70
2015,05,17,00,45,12.70
2015,05,17,00,46,12.70
2015,05,17,00,47,12.60
2015,05,17,00,48,12.60
2015,05,17,00,49,12.60
2015,05,17,00,50,12.60
2015,05,17,00,51,12.60
2015,05,17,00,52,12.60
2015,05,17,00,53,12.60
2015,05,17,00,54,12.60
2015,05,17,00,55,12.60
2015,05,17,00,56,12.60
2015,05,17,00,57,12.60
2015,05,17,00,58,12.60
2015,05,17,00,59,12.60
2015,05,17,01,00,12.60
2015,05,17,01,01,12.60
2015,05,17,01,02,12.60
2015,05,17,01,03,12.60
2015,05,17,01,04,12.60
2015,05,17,01,05,12.60
2015,05,17,01,06,12.60
2015,05,17,01,07,12.60
2015,05,17,01,08,12.60
2015,05,17,01,09,12.60
2015,05,17,01,10,12.60
2015,05,17,01,11,12.60
2015,05,17,01,12,12.60
2015,05,17,01,13,12.60
2015,05,17,01,14,12.60
2015,05,17,01,15,12.60
2015,05,17,01,16,12.60
2015,05,17,01,17,12.60
2015,05,17,01,18,12.60
2015,05,17,01,19,12.60
2015,05,17,01,20,12.60
2015,05,17,01,21,12.60
2015,05,17,01,22,12.60
2015,05,17,01,23,12.60
2015,05,17,01,24,12.60
2015,05,17,01,25,12.60
2015,05,17,01,26,12.60
2015,05,17,01,27,12.60
2015,05,17,01,28,12.60
2015,05,17,01,29,12.60
2015,05,17,01,30,12.60
2015,05,17,01,31,12.60
2015,05,17,01,32,12.60
2015,05,17,01,33,12.60
2015,05,17,01,34,12.60
2015,05,17,01,35,12.60
2015,05,17,01,36,12.60
2015,05,17,01,37,12.60
2015,05,17,01,38,12.60
2015,05,17,01,39,12.60
2015,05,17,01,40,12.60
2015,05,17,01,41,12.60
2015,05,17,01,42,12.60
2015,05,17,01,43,12.60
2015,05,17,01,44,12.60
2015,05,17,01,45,12.60
2015,05,17,01,46,12.60
2015,05,17,01,47,12.60
2015,05,17,01,48,12.60
2015,05,17,01,49,12.60
2015,05,17,01,50,12.60
2015,05,17,01,51,12.60
2015,05,17,01,52,12.60
2015,05,17,01,53,12.60
2015,05,17,01,54,12.60
2015,05,17,01,55,12.60
2015,05,17,01,56,12.60
2015,05,17,01,57,12.60
2015,05,17,01,58,12.60
2015,05,17,01,59,12.60
2015,05,17,02,00,12.60
2015,05,17,02,01,12.60
2015,05,17,02,02,12.60
2015,05,17,02,03,12.60
2015,05,17,02,04,12.60
2015,05,17,02,05,12.60
2015,05,17,02,06,12.60
2015,05,17,02,07,12.60
2015,05,17,02,08,12.60
2015,05,17,02,09,12.60
2015,05,17,02,10,12.60
2015,05,17,02,11,12.60
2015,05,17,02,12,12.60
2015,05,17,02,13,12.60
2015,05,17,02,14,12.60
2015,05,17,02,15,12.60
2015,05,17,02,16,12.60
2015,05,17,02,17,12.60
2015,05,17,02,18,12.60
2015,05,17,02,19,12.60
2015,05,17,02,20,12.60
2015,05,17,02,21,12.60
2015,05,17,02,22,12.60
2015,05,17,02,23,12.60
2015,05,17,02,24,12.60
2015,05,17,02,25,12.60
2015,05,17,02,26,12.60
2015,05,17,02,27,12.60
2015,05,17,02,28,12.60
2015,05,17,02,29,12.60
2015,05,17,02,30,12.60
2015,05,17,02,31,12.60
2015,05,17,02,32,12.60
2015,05,17,02,33,12.60
2015,05,17,02,34,12.60
2015,05,17,02,35,12.60
2015,05,17,02,36,12.60
2015,05,17,02,37,12.60
2015,05,17,02,38,12.60
2015,05,17,02,39,12.60
2015,05,17,02,40,12.60
2015,05,17,02,41,12.60
2015,05,17,02,42,12.60
2015,05,17,02,43,12.60
2015,05,17,02,44,12.60
2015,05,17,02,45,12.60
2015,05,17,02,46,12.60
2015,05,17,02,47,12.60
2015,05,17,02,48,12.60
2015,05,17,02,49,12.60
2015,05,17,02,50,12.60
2015,05,17,02,51,12.60
2015,05,17,02,52,12.60
2015,05,17,02,53,12.60
2015,05,17,02,54,12.60
2015,05,17,02,55,12.60
2015,05,17,02,56,12.60
2015,05,17,02,57,12.50
2015,05,17,02,58,12.50
2015,05,17,02,59,12.50
2015,05,17,03,00,12.50
2015,05,17,03,01,12.50
2015,05,17,03,02,12.50
2015,05,17,03,03,12.50
2015,05,17,03,04,12.50
2015,05,17,03,05,12.50
2015,05,17,03,06,12.50
2015,05,17,03,07,12.50
2015,05,17,03,08,12.50
2015,05,17,03,09,12.50
2015,05,17,03,10,12.50
2015,05,17,03,11,12.50
2015,05,17,03,12,12.50
2015,05,17,03,13,12.50
2015,05,17,03,14,12.50
2015,05,17,03,15,12.50
2015,05,17,03,16,12.50
2015,05,17,03,17,12.50
2015,05,17,03,18,12.50
2015,05,17,03,19,12.50
2015,05,17,03,20,12.40
2015,05,17,03,21,12.40
2015,05,17,03,22,12.40
2015,05,17,03,23,12.40
2015,05,17,03,24,12.50
2015,05,17,03,25,12.50
2015,05,17,03,26,12.40
2015,05,17,03,27,12.40
2015,05,17,03,28,12.40
2015,05,17,03,29,12.40
2015,05,17,03,30,12.40
2015,05,17,03,31,12.40
2015,05,17,03,32,12.40
2015,05,17,03,33,12.40
2015,05,17,03,34,12.40
2015,05,17,03,35,12.40
2015,05,17,03,36,12.40
2015,05,17,03,37,12.40
2015,05,17,03,38,12.40
2015,05,17,03,39,12.40
2015,05,17,03,40,12.40
2015,05,17,03,41,12.40
2015,05,17,03,42,12.40
2015,05,17,03,43,12.40
2015,05,17,03,44,12.40
2015,05,17,03,45,12.40
2015,05,17,03,46,12.40
2015,05,17,03,47,12.40
2015,05,17,03,48,12.40
2015,05,17,03,49,12.30
2015,05,17,03,50,12.40
2015,05,17,03,51,12.30
2015,05,17,03,52,12.30
2015,05,17,03,53,12.30
2015,05,17,03,54,12.30
2015,05,17,03,55,12.30
2015,05,17,03,56,12.30
2015,05,17,03,57,12.30
2015,05,17,03,58,12.30
2015,05,17,03,59,12.30
2015,05,17,04,00,12.30
2015,05,17,04,01,12.30
2015,05,17,04,02,12.30
2015,05,17,04,03,12.30
2015,05,17,04,04,12.30
2015,05,17,04,05,12.30
2015,05,17,04,06,12.30
2015,05,17,04,07,12.30
2015,05,17,04,08,12.30
2015,05,17,04,09,12.30
2015,05,17,04,10,12.30
2015,05,17,04,11,12.30
2015,05,17,04,12,12.30
2015,05,17,04,13,12.30
2015,05,17,04,14,12.30
2015,05,17,04,15,12.30
2015,05,17,04,16,12.30
2015,05,17,04,17,12.30
2015,05,17,04,18,12.30
2015,05,17,04,19,12.30
2015,05,17,04,20,12.30
2015,05,17,04,21,12.30
2015,05,17,04,22,12.30
2015,05,17,04,23,12.30
2015,05,17,04,24,12.30
2015,05,17,04,25,12.30
2015,05,17,04,26,12.30
2015,05,17,04,27,12.30
2015,05,17,04,28,12.30
2015,05,17,04,29,12.30
2015,05,17,04,30,12.30
2015,05,17,04,31,12.30
2015,05,17,04,32,12.30
2015,05,17,04,33,12.30
2015,05,17,04,34,12.30
2015,05,17,04,35,12.30
2015,05,17,04,36,12.30
2015,05,17,04,37,12.30
2015,05,17,04,38,12.30
2015,05,17,04,39,12.30
2015,05,17,04,40,12.30
2015,05,17,04,41,12.30
2015,05,17,04,42,12.30
2015,05,17,04,43,12.30
2015,05,17,04,44,12.30
2015,05,17,04,45,12.30
2015,05,17,04,46,12.30
2015,05,17,04,47,12.30
2015,05,17,04,48,12.30
2015,05,17,04,49,12.30
2015,05,17,04,50,12.30
2015,05,17,04,51,12.30
2015,05,17,04,52,12.30
2015,05,17,04,53,12.30
2015,05,17,04,54,12.30
2015,05,17,04,55,12.30
2015,05,17,04,56,12.30
2015,05,17,04,57,12.30
2015,05,17,04,58,12.20
2015,05,17,04,59,12.20
2015,05,17,05,00,12.20
2015,05,17,05,01,12.20
2015,05,17,05,02,12.20
2015,05,17,05,03,12.20
2015,05,17,05,04,12.20
2015,05,17,05,05,12.20
2015,05,17,05,06,12.20
2015,05,17,05,07,12.20
2015,05,17,05,08,12.20
2015,05,17,05,09,12.10
2015,05,17,05,10,12.10
2015,05,17,05,11,12.10
2015,05,17,05,12,12.10
2015,05,17,05,13,12.10
2015,05,17,05,14,12.10
2015,05,17,05,15,12.10
2015,05,17,05,16,12.10
2015,05,17,05,17,12.10
2015,05,17,05,18,12.10
2015,05,17,05,19,12.10
2015,05,17,05,20,12.10
2015,05,17,05,21,12.10
2015,05,17,05,22,12.10
2015,05,17,05,23,12.10
2015,05,17,05,24,12.10
2015,05,17,05,25,12.10
2015,05,17,05,26,12.10
2015,05,17,05,27,12.10
2015,05,17,05,28,12.10
2015,05,17,05,29,12.10
2015,05,17,05,30,12.10
2015,05,17,05,31,12.10
2015,05,17,05,32,12.10
2015,05,17,05,33,12.10
2015,05,17,05,34,12.10
2015,05,17,05,35,12.10
2015,05,17,05,36,12.10
2015,05,17,05,37,12.10
2015,05,17,05,38,12.10
2015,05,17,05,39,12.10
2015,05,17,05,40,12.10
2015,05,17,05,41,12.10
2015,05,17,05,42,12.10
2015,05,17,05,43,12.10
2015,05,17,05,44,12.10
2015,05,17,05,45,12.10
2015,05,17,05,46,12.10
2015,05,17,05,47,12.10
2015,05,17,05,48,12.10
2015,05,17,05,49,12.10
2015,05,17,05,50,12.10
2015,05,17,05,51,12.10
2015,05,17,05,52,12.10
2015,05,17,05,53,12.10
2015,05,17,05,54,12.10
2015,05,17,05,55,12.10
2015,05,17,05,56,12.10
2015,05,17,05,57,12.10
2015,05,17,05,58,12.10
2015,05,17,05,59,12.10
2015,05,17,06,00,12.10
2015,05,17,06,01,12.10
2015,05,17,06,02,12.10
2015,05,17,06,03,12.10
2015,05,17,06,04,12.10
2015,05,17,06,05,12.10
2015,05,17,06,06,12.10
2015,05,17,06,07,12.10
2015,05,17,06,08,12.10
2015,05,17,06,09,12.10
2015,05,17,06,10,12.10
2015,05,17,06,11,12.10
2015,05,17,06,12,12.10
2015,05,17,06,13,12.10
2015,05,17,06,14,12.10
2015,05,17,06,15,12.10
2015,05,17,06,16,12.10
2015,05,17,06,17,12.10
2015,05,17,06,18,12.10
2015,05,17,06,19,12.10
2015,05,17,06,20,12.10
2015,05,17,06,21,12.10
2015,05,17,06,22,12.10
2015,05,17,06,23,12.10
2015,05,17,06,24,12.10
2015,05,17,06,25,12.10
2015,05,17,06,26,12.10
2015,05,17,06,27,12.10
2015,05,17,06,28,12.10
2015,05,17,06,29,12.10
2015,05,17,06,30,12.10
2015,05,17,06,31,12.10
2015,05,17,06,32,12.10
2015,05,17,06,33,12.10
2015,05,17,06,34,12.20
2015,05,17,06,35,12.20
2015,05,17,06,36,12.20
2015,05,17,06,37,12.20
2015,05,17,06,38,12.20
2015,05,17,06,39,12.20
2015,05,17,06,40,12.20
2015,05,17,06,41,12.20
2015,05,17,06,42,12.20
2015,05,17,06,43,12.20
2015,05,17,06,44,12.20
2015,05,17,06,45,12.20
2015,05,17,06,46,12.20
2015,05,17,06,47,12.20
2015,05,17,06,48,12.20
2015,05,17,06,49,12.30
2015,05,17,06,50,12.30
2015,05,17,06,51,12.30
2015,05,17,06,52,12.30
2015,05,17,06,53,12.30
2015,05,17,06,54,12.30
2015,05,17,06,55,12.30
2015,05,17,06,56,12.30
2015,05,17,06,57,12.30
2015,05,17,06,58,12.30
2015,05,17,06,59,12.30
2015,05,17,07,00,12.30
2015,05,17,07,01,12.40
2015,05,17,07,02,12.40
2015,05,17,07,03,12.40
2015,05,17,07,04,12.40
2015,05,17,07,05,12.40
2015,05,17,07,06,12.40
2015,05,17,07,07,12.40
2015,05,17,07,08,12.40
2015,05,17,07,09,12.40
2015,05,17,07,10,12.40
2015,05,17,07,11,12.40
2015,05,17,07,12,12.40
2015,05,17,07,13,12.50
2015,05,17,07,14,12.50
2015,05,17,07,15,12.50
2015,05,17,07,16,12.50
2015,05,17,07,17,12.50
2015,05,17,07,18,12.60
2015,05,17,07,19,12.60
2015,05,17,07,20,12.60
2015,05,17,07,21,12.60
2015,05,17,07,22,12.60
2015,05,17,07,23,12.60
2015,05,17,07,24,12.60
2015,05,17,07,25,12.60
2015,05,17,07,26,12.60
2015,05,17,07,27,12.60
2015,05,17,07,28,12.70
2015,05,17,07,29,12.70
2015,05,17,07,30,12.70
2015,05,17,07,31,12.70
2015,05,17,07,32,12.70
2015,05,17,07,33,12.70
2015,05,17,07,34,12.70
2015,05,17,07,35,12.70
2015,05,17,07,36,12.80
2015,05,17,07,37,12.80
2015,05,17,07,38,12.80
2015,05,17,07,39,12.80
2015,05,17,07,40,12.80
2015,05,17,07,41,12.90
2015,05,17,07,42,12.90
2015,05,17,07,43,12.90
2015,05,17,07,44,12.90
2015,05,17,07,45,12.90
2015,05,17,07,46,12.90
2015,05,17,07,47,12.90
2015,05,17,07,48,12.90
2015,05,17,07,49,13.00
2015,05,17,07,50,13.00
2015,05,17,07,51,13.00
2015,05,17,07,52,13.00
2015,05,17,07,53,13.00
2015,05,17,07,54,13.10
2015,05,17,07,55,13.10
2015,05,17,07,56,13.10
2015,05,17,07,57,13.10
2015,05,17,07,58,13.10
2015,05,17,07,59,13.20
2015,05,17,08,00,13.20
2015,05,17,08,01,13.20
2015,05,17,08,02,13.20
2015,05,17,08,03,13.20
2015,05,17,08,04,13.20
2015,05,17,08,05,13.20
2015,05,17,08,06,13.20
2015,05,17,08,07,13.20
2015,05,17,08,08,13.20
2015,05,17,08,09,13.20
2015,05,17,08,10,13.20
2015,05,17,08,11,13.30
2015,05,17,08,12,13.30
2015,05,17,08,13,13.30
2015,05,17,08,14,13.40
2015,05,17,08,15,13.40
2015,05,17,08,16,13.40
2015,05,17,08,17,13.40
2015,05,17,08,18,13.40
2015,05,17,08,19,13.40
2015,05,17,08,20,13.50
2015,05,17,08,21,13.50
2015,05,17,08,22,13.50
2015,05,17,08,23,13.50
2015,05,17,08,24,13.50
2015,05,17,08,25,13.60
2015,05,17,08,26,13.60
2015,05,17,08,27,13.60
2015,05,17,08,28,13.60
2015,05,17,08,29,13.60
2015,05,17,08,30,13.60
2015,05,17,08,31,13.70
2015,05,17,08,32,13.70
2015,05,17,08,33,13.70
2015,05,17,08,34,13.70
2015,05,17,08,35,13.70
2015,05,17,08,36,13.70
2015,05,17,08,37,13.80
2015,05,17,08,38,13.80
2015,05,17,08,39,13.80
2015,05,17,08,40,13.80
2015,05,17,08,41,13.90
2015,05,17,08,42,13.90
2015,05,17,08,43,13.90
2015,05,17,08,44,13.90
2015,05,17,08,45,13.90
2015,05,17,08,46,13.90
2015,05,17,08,47,13.90
2015,05,17,08,48,13.90
2015,05,17,08,49,13.90
2015,05,17,08,50,13.80
2015,05,17,08,51,13.80
2015,05,17,08,52,13.80
2015,05,17,08,53,13.80
2015,05,17,08,54,13.80
2015,05,17,08,55,13.80
2015,05,17,08,56,13.80
2015,05,17,08,57,13.80
2015,05,17,08,58,13.80
2015,05,17,08,59,13.80
2015,05,17,09,00,13.80
2015,05,17,09,01,13.90
2015,05,17,09,02,13.90
2015,05,17,09,03,13.90
2015,05,17,09,04,14.00
2015,05,17,09,05,14.10
2015,05,17,09,06,14.10
2015,05,17,09,07,14.10
2015,05,17,09,08,14.10
2015,05,17,09,09,14.10
2015,05,17,09,10,14.10
2015,05,17,09,11,14.10
2015,05,17,09,12,14.10
2015,05,17,09,13,14.10
2015,05,17,09,14,14.20
2015,05,17,09,15,14.20
2015,05,17,09,16,14.20
2015,05,17,09,17,14.20
2015,05,17,09,18,14.20
2015,05,17,09,19,14.20
2015,05,17,09,20,14.20
2015,05,17,09,21,14.20
2015,05,17,09,22,14.20
2015,05,17,09,23,14.20
2015,05,17,09,24,14.20
2015,05,17,09,25,14.30
2015,05,17,09,26,14.30
2015,05,17,09,27,14.30
2015,05,17,09,28,14.40
2015,05,17,09,29,14.40
2015,05,17,09,30,14.50
2015,05,17,09,31,14.50
2015,05,17,09,32,14.50
2015,05,17,09,33,14.50
2015,05,17,09,34,14.50
2015,05,17,09,35,14.50
2015,05,17,09,36,14.50
2015,05,17,09,37,14.50
2015,05,17,09,38,14.50
2015,05,17,09,39,14.50
2015,05,17,09,40,14.60
2015,05,17,09,41,14.70
2015,05,17,09,42,14.80
2015,05,17,09,43,14.80
2015,05,17,09,44,14.90
2015,05,17,09,45,15.00
2015,05,17,09,46,15.10
2015,05,17,09,47,15.20
2015,05,17,09,48,15.30
2015,05,17,09,49,15.40
2015,05,17,09,50,15.50
2015,05,17,09,51,15.60
2015,05,17,09,52,15.70
2015,05,17,09,53,15.80
2015,05,17,09,54,15.80
2015,05,17,09,55,15.90
2015,05,17,09,56,15.90
2015,05,17,09,57,15.90
2015,05,17,09,58,15.90
2015,05,17,09,59,15.90
2015,05,17,10,00,15.90
2015,05,17,10,01,15.90
2015,05,17,10,02,15.90
2015,05,17,10,03,16.00
2015,05,17,10,04,16.00
2015,05,17,10,05,16.00
2015,05,17,10,06,16.00
2015,05,17,10,07,15.90
2015,05,17,10,08,15.80
2015,05,17,10,09,15.80
2015,05,17,10,10,15.80
2015,05,17,10,11,15.70
2015,05,17,10,12,15.70
2015,05,17,10,13,15.70
2015,05,17,10,14,15.70
2015,05,17,10,15,15.80
2015,05,17,10,16,15.80
2015,05,17,10,17,15.90
2015,05,17,10,18,16.00
2015,05,17,10,19,16.00
2015,05,17,10,20,16.00
2015,05,17,10,21,16.00
2015,05,17,10,22,15.90
2015,05,17,10,23,15.90
2015,05,17,10,24,15.80
2015,05,17,10,25,15.80
2015,05,17,10,26,15.80
2015,05,17,10,27,15.70
2015,05,17,10,28,15.70
2015,05,17,10,29,15.70
2015,05,17,10,30,15.80
2015,05,17,10,31,15.80
2015,05,17,10,32,15.80
2015,05,17,10,33,15.80
2015,05,17,10,34,15.90
2015,05,17,10,35,16.00
2015,05,17,10,36,16.00
2015,05,17,10,37,16.10
2015,05,17,10,38,16.10
2015,05,17,10,39,16.20
2015,05,17,10,40,16.20
2015,05,17,10,41,16.20
2015,05,17,10,42,16.20
2015,05,17,10,43,16.20
2015,05,17,10,44,16.20
2015,05,17,10,45,16.30
2015,05,17,10,46,16.30
2015,05,17,10,47,16.30
2015,05,17,10,48,16.40
2015,05,17,10,49,16.40
2015,05,17,10,50,16.40
2015,05,17,10,51,16.40
2015,05,17,10,52,16.50
2015,05,17,10,53,16.50
2015,05,17,10,54,16.60
2015,05,17,10,55,16.60
2015,05,17,10,56,16.60
2015,05,17,10,57,16.70
2015,05,17,10,58,16.70
2015,05,17,10,59,16.70
2015,05,17,11,00,16.70
2015,05,17,11,01,16.80
2015,05,17,11,02,16.80
2015,05,17,11,03,16.90
2015,05,17,11,04,16.90
2015,05,17,11,05,17.00
2015,05,17,11,06,17.00
2015,05,17,11,07,17.00
2015,05,17,11,08,17.00
2015,05,17,11,09,17.10
2015,05,17,11,10,17.10
2015,05,17,11,11,17.10
2015,05,17,11,12,17.00
2015,05,17,11,13,16.90
2015,05,17,11,14,16.90
2015,05,17,11,15,16.90
2015,05,17,11,16,16.90
2015,05,17,11,17,17.00
2015,05,17,11,18,17.10
2015,05,17,11,19,17.10
2015,05,17,11,20,17.10
2015,05,17,11,21,17.00
2015,05,17,11,22,17.00
2015,05,17,11,23,17.00
2015,05,17,11,24,17.10
2015,05,17,11,25,17.10
2015,05,17,11,26,17.10
2015,05,17,11,27,17.10
2015,05,17,11,28,17.10
2015,05,17,11,29,17.10
2015,05,17,11,30,17.20
2015,05,17,11,31,17.20
2015,05,17,11,32,17.30
2015,05,17,11,33,17.30
2015,05,17,11,34,17.40
2015,05,17,11,35,17.40
2015,05,17,11,36,17.40
2015,05,17,11,37,17.40
2015,05,17,11,38,17.40
2015,05,17,11,39,17.40
2015,05,17,11,40,17.40
2015,05,17,11,41,17.40
2015,05,17,11,42,17.30
2015,05,17,11,43,17.30
2015,05,17,11,44,17.40
2015,05,17,11,45,17.40
2015,05,17,11,46,17.50
2015,05,17,11,47,17.60
2015,05,17,11,48,17.60
2015,05,17,11,49,17.60
2015,05,17,11,50,17.60
2015,05,17,11,51,17.50
2015,05,17,11,52,17.50
2015,05,17,11,53,17.50
2015,05,17,11,54,17.60
2015,05,17,11,55,17.60
2015,05,17,11,56,17.50
2015,05,17,11,57,17.50
2015,05,17,11,58,17.50
2015,05,17,11,59,17.40
2015,05,17,12,00,17.40
2015,05,17,12,01,17.40
2015,05,17,12,02,17.40
2015,05,17,12,03,17.40
2015,05,17,12,04,17.50
2015,05,17,12,05,17.50
2015,05,17,12,06,17.60
2015,05,17,12,07,17.70
2015,05,17,12,08,17.70
2015,05,17,12,09,17.70
2015,05,17,12,10,17.60
2015,05,17,12,11,17.60
2015,05,17,12,12,17.60
2015,05,17,12,13,17.60
2015,05,17,12,14,17.60
2015,05,17,12,15,17.60
2015,05,17,12,16,17.60
2015,05,17,12,17,17.60
2015,05,17,12,18,17.60
2015,05,17,12,19,17.60
2015,05,17,12,20,17.60
2015,05,17,12,21,17.70
2015,05,17,12,22,17.70
2015,05,17,12,23,17.80
2015,05,17,12,24,17.90
2015,05,17,12,25,18.00
2015,05,17,12,26,18.00
2015,05,17,12,27,18.10
2015,05,17,12,28,18.30
2015,05,17,12,29,18.40
2015,05,17,12,30,18.50
2015,05,17,12,31,18.60
2015,05,17,12,32,18.70
2015,05,17,12,33,18.80
2015,05,17,12,34,18.90
2015,05,17,12,35,19.00
2015,05,17,12,36,19.10
2015,05,17,12,37,19.20
2015,05,17,12,38,19.20
2015,05,17,12,39,19.20
2015,05,17,12,40,19.30
2015,05,17,12,41,19.30
2015,05,17,12,42,19.30
2015,05,17,12,43,19.30
2015,05,17,12,44,19.40
2015,05,17,12,45,19.50
2015,05,17,12,46,19.60
2015,05,17,12,47,19.70
2015,05,17,12,48,19.80
2015,05,17,12,49,20.00
2015,05,17,12,50,20.10
2015,05,17,12,51,20.20
2015,05,17,12,52,20.30
2015,05,17,12,53,20.30
2015,05,17,12,54,20.20
2015,05,17,12,55,20.10
2015,05,17,12,56,20.10
2015,05,17,12,57,20.00
2015,05,17,12,58,20.00
2015,05,17,12,59,19.90
2015,05,17,13,00,20.00
2015,05,17,13,01,20.00
2015,05,17,13,02,20.10
2015,05,17,13,03,20.10
2015,05,17,13,04,20.00
2015,05,17,13,05,19.90
2015,05,17,13,06,19.80
2015,05,17,13,07,19.70
2015,05,17,13,08,19.70
2015,05,17,13,09,19.70
2015,05,17,13,10,19.70
2015,05,17,13,11,19.70
2015,05,17,13,12,19.70
2015,05,17,13,13,19.70
2015,05,17,13,14,19.80
2015,05,17,13,15,19.80
2015,05,17,13,16,19.80
2015,05,17,13,17,19.90
2015,05,17,13,18,19.90
2015,05,17,13,19,20.00
2015,05,17,13,20,20.00
2015,05,17,13,21,20.10
2015,05,17,13,22,20.10
2015,05,17,13,23,20.00
2015,05,17,13,24,20.00
2015,05,17,13,25,20.00
2015,05,17,13,26,20.10
2015,05,17,13,27,20.10
2015,05,17,13,28,20.10
2015,05,17,13,29,20.10
2015,05,17,13,30,20.10
2015,05,17,13,31,20.20
2015,05,17,13,32,20.20
2015,05,17,13,33,20.20
2015,05,17,13,34,20.20
2015,05,17,13,35,20.20
2015,05,17,13,36,20.20
2015,05,17,13,37,20.30
2015,05,17,13,38,20.20
2015,05,17,13,39,20.20
2015,05,17,13,40,20.20
2015,05,17,13,41,20.10
2015,05,17,13,42,20.10
2015,05,17,13,43,20.10
2015,05,17,13,44,20.10
2015,05,17,13,45,20.10
2015,05,17,13,46,20.10
2015,05,17,13,47,20.10
2015,05,17,13,48,20.00
2015,05,17,13,49,20.00
2015,05,17,13,50,20.10
2015,05,17,13,51,20.10
2015,05,17,13,52,20.10
2015,05,17,13,53,20.10
2015,05,17,13,54,20.10
2015,05,17,13,55,20.10
2015,05,17,13,56,20.10
2015,05,17,13,57,20.10
2015,05,17,13,58,20.00
2015,05,17,13,59,19.90
2015,05,17,14,00,20.00
2015,05,17,14,01,20.00
2015,05,17,14,02,20.10
2015,05,17,14,03,20.20
2015,05,17,14,04,20.20
2015,05,17,14,05,20.20
2015,05,17,14,06,20.20
2015,05,17,14,07,20.20
2015,05,17,14,08,20.20
2015,05,17,14,09,20.20
2015,05,17,14,10,20.20
2015,05,17,14,11,20.20
2015,05,17,14,12,20.20
2015,05,17,14,13,20.20
2015,05,17,14,14,20.20
2015,05,17,14,15,20.20
2015,05,17,14,16,20.20
2015,05,17,14,17,20.50
2015,05,17,14,18,20.50
2015,05,17,14,19,20.40
2015,05,17,14,20,20.40
2015,05,17,14,21,20.40
2015,05,17,14,22,20.40
2015,05,17,14,23,20.50
2015,05,17,14,24,20.60
2015,05,17,14,25,20.60
2015,05,17,14,26,20.70
2015,05,17,14,27,20.80
2015,05,17,14,28,20.80
2015,05,17,14,29,20.90
2015,05,17,14,30,20.90
2015,05,17,14,31,20.90
2015,05,17,14,32,20.90
2015,05,17,14,33,20.90
2015,05,17,14,34,20.80
2015,05,17,14,35,20.80
2015,05,17,14,36,20.80
2015,05,17,14,37,20.80
2015,05,17,14,38,20.70
2015,05,17,14,39,20.70
2015,05,17,14,40,20.70
2015,05,17,14,41,20.80
2015,05,17,14,42,20.90
2015,05,17,14,43,21.00
2015,05,17,14,44,21.10
2015,05,17,14,45,21.20
2015,05,17,14,46,21.40
2015,05,17,14,47,21.40
2015,05,17,14,48,21.40
2015,05,17,14,49,21.30
2015,05,17,14,50,21.30
2015,05,17,14,51,21.30
2015,05,17,14,52,21.30
2015,05,17,14,53,21.30
2015,05,17,14,54,21.40
2015,05,17,14,55,21.40
2015,05,17,14,56,21.40
2015,05,17,14,57,21.40
2015,05,17,14,58,21.40
2015,05,17,14,59,21.40
2015,05,17,15,00,21.40
2015,05,17,15,01,21.40
2015,05,17,15,02,21.30
2015,05,17,15,03,21.30
2015,05,17,15,04,21.20
2015,05,17,15,05,21.20
2015,05,17,15,06,21.20
2015,05,17,15,07,21.20
2015,05,17,15,08,21.20
2015,05,17,15,09,21.20
2015,05,17,15,10,21.20
2015,05,17,15,11,21.20
2015,05,17,15,12,21.20
2015,05,17,15,13,21.20
2015,05,17,15,14,21.20
2015,05,17,15,15,21.30
2015,05,17,15,16,21.30
2015,05,17,15,17,21.30
2015,05,17,15,18,21.30
2015,05,17,15,19,21.30
2015,05,17,15,20,21.40
2015,05,17,15,21,21.40
2015,05,17,15,22,21.50
2015,05,17,15,23,21.60
2015,05,17,15,24,21.70
2015,05,17,15,25,21.80
2015,05,17,15,26,21.80
2015,05,17,15,27,21.90
2015,05,17,15,28,21.90
2015,05,17,15,29,21.90
2015,05,17,15,30,21.90
2015,05,17,15,31,21.90
2015,05,17,15,32,21.90
2015,05,17,15,33,22.00
2015,05,17,15,34,22.00
2015,05,17,15,35,22.10
2015,05,17,15,36,22.20
2015,05,17,15,37,22.30
2015,05,17,15,38,22.30
2015,05,17,15,39,22.30
2015,05,17,15,40,22.40
2015,05,17,15,41,22.30
2015,05,17,15,42,22.30
2015,05,17,15,43,22.10
2015,05,17,15,44,22.00
2015,05,17,15,45,21.90
2015,05,17,15,46,21.80
2015,05,17,15,47,21.70
2015,05,17,15,48,21.70
2015,05,17,15,49,21.60
2015,05,17,15,50,21.50
2015,05,17,15,51,21.40
2015,05,17,15,52,21.40
2015,05,17,15,53,21.40
2015,05,17,15,54,21.40
2015,05,17,15,55,21.40
2015,05,17,15,56,21.40
2015,05,17,15,57,21.40
2015,05,17,15,58,21.30
2015,05,17,15,59,21.30
2015,05,17,16,00,21.30
2015,05,17,16,01,21.30
2015,05,17,16,02,21.30
2015,05,17,16,03,21.30
2015,05,17,16,04,21.40
2015,05,17,16,05,21.50
2015,05,17,16,06,21.60
2015,05,17,16,07,21.70
2015,05,17,16,08,21.80
2015,05,17,16,09,21.80
2015,05,17,16,10,21.90
2015,05,17,16,11,21.90
2015,05,17,16,12,21.90
2015,05,17,16,13,22.00
2015,05,17,16,14,22.00
2015,05,17,16,15,22.10
2015,05,17,16,16,22.10
2015,05,17,16,17,22.00
2015,05,17,16,18,21.90
2015,05,17,16,19,21.90
2015,05,17,16,20,21.80
2015,05,17,16,21,21.90
2015,05,17,16,22,21.90
2015,05,17,16,23,21.90
2015,05,17,16,24,22.00
2015,05,17,16,25,22.10
2015,05,17,16,26,22.20
2015,05,17,16,27,22.30
2015,05,17,16,28,22.40
2015,05,17,16,29,22.40
2015,05,17,16,30,22.50
2015,05,17,16,31,22.50
2015,05,17,16,32,22.50
2015,05,17,16,33,22.40
2015,05,17,16,34,22.30
2015,05,17,16,35,22.30
2015,05,17,16,36,22.20
2015,05,17,16,37,22.20
2015,05,17,16,38,22.20
2015,05,17,16,39,22.20
2015,05,17,16,40,22.30
2015,05,17,16,41,22.30
2015,05,17,16,42,22.30
2015,05,17,16,43,22.30
2015,05,17,16,44,22.20
2015,05,17,16,45,22.10
2015,05,17,16,46,22.00
2015,05,17,16,47,21.90
2015,05,17,16,48,21.80
2015,05,17,16,49,21.70
2015,05,17,16,50,21.70
2015,05,17,16,51,21.60
2015,05,17,16,52,21.50
2015,05,17,16,53,21.30
2015,05,17,16,54,21.20
2015,05,17,16,55,21.10
2015,05,17,16,56,21.00
2015,05,17,16,57,20.90
2015,05,17,16,58,20.80
2015,05,17,16,59,20.70
2015,05,17,17,00,20.60
2015,05,17,17,01,20.40
2015,05,17,17,02,20.30
2015,05,17,17,03,20.30
2015,05,17,17,04,20.20
2015,05,17,17,05,20.10
2015,05,17,17,06,20.10
2015,05,17,17,07,20.00
2015,05,17,17,08,20.00
2015,05,17,17,09,19.90
2015,05,17,17,10,19.80
2015,05,17,17,11,19.70
2015,05,17,17,12,19.70
2015,05,17,17,13,19.70
2015,05,17,17,14,19.70
2015,05,17,17,15,19.70
2015,05,17,17,16,19.70
2015,05,17,17,17,19.70
2015,05,17,17,18,19.70
2015,05,17,17,19,19.70